Flag for Belgium Weather past 2 weeks in Charleroi, Belgium

Now
34 °F

Clear.


Feels Like: 30 °F
Forecast: 35 / 53 °F
Wind: 5 mph from Southwest

Location: Charleroi / Gosselies

Current Time: Mar 6, 2015 at 4:35:04 AM

Latest Report: Mar 6, 2015 at 3:50 AM


Visibility: 6 mi

Pressure: 30.63 "Hg

Humidity: 87%

Dew point: 30 °F

Location of CharleroiLocation

Historic Weather in Charleroi — Graph

°F

Charleroi temperature yesterday

Maximum temperature yesterday: 48 °F (at 3:20 PM)
Minimum temperature yesterday: 32 °F (at 6:50 AM)
Average temperature yesterday: 40 °F

Past Weeks' High & Low Weather Summary

 TemperatureHumidityPressure
High48 °F (Feb 23, 1:50 PM)100% (Feb 21, 8:20 PM)30.69 "Hg (Feb 21, 8:20 PM)
Low30 °F (Feb 22, 7:20 AM)50% (Feb 28, 1:50 PM)29.39 "Hg (Feb 23, 5:20 AM)
Average40 °F82%29.94 "Hg
* Reported Feb 19 2:20 AM — Mar 6 2:50 AM, Charleroi, Weather by CustomWeather, © 2015

Note: Actual official high and low records may vary slightly from our data, if they occured in-between our weather recording intervals... More about our weather records

Advertising

Charleroi weather history for previous 24 hours

 ConditionsComfort  
Time TempWeatherWind HumidityBarometerVisibility
2:50 AM
Fri, Mar 6
36 °FClear.6 mph87%30.63 "Hg10 mi
2:20 AM36 °FClear.6 mph87%30.63 "Hg10 mi
1:50 AM36 °FClear.6 mph87%30.63 "Hg10 mi
1:20 AM36 °FClear.5 mph87%30.63 "Hg6 mi
12:50 AM37 °FClear.6 mph81%30.66 "Hg6 mi
12:20 AM36 °FClear.6 mph87%30.66 "Hg5 mi
11:50 PM
Thu, Mar 5
37 °FClear.6 mph81%30.66 "Hg6 mi
11:20 PM36 °FClear.6 mph87%30.66 "Hg6 mi
10:50 PM39 °FPassing clouds.3 mph75%30.66 "HgN/A
10:20 PM39 °FClear.3 mph75%30.66 "Hg10 mi
9:50 PM39 °FClear.3 mph75%30.66 "Hg10 mi
9:20 PM39 °FClear.3 mph81%30.66 "Hg10 mi
8:50 PM41 °FClear.3 mph76%30.66 "Hg10 mi
8:20 PM41 °FClear.2 mph76%30.66 "Hg10 mi
7:50 PM43 °FPassing clouds.2 mph71%30.66 "HgN/A
7:20 PM43 °FPassing clouds.2 mph71%30.66 "HgN/A
6:50 PM43 °FPassing clouds.2 mph71%30.66 "HgN/A
6:20 PM45 °FPassing clouds.3 mph66%30.66 "HgN/A
5:50 PM45 °FPassing clouds.6 mph66%30.63 "HgN/A
5:20 PM45 °FPassing clouds.6 mph61%30.63 "HgN/A
4:50 PM46 °FPassing clouds.7 mph62%30.63 "HgN/A
4:20 PM46 °FPassing clouds.8 mph57%30.63 "HgN/A
3:50 PM46 °FPassing clouds.6 mph57%30.63 "HgN/A
3:20 PM48 °FPassing clouds.9 mph54%30.63 "HgN/A
2:50 PM46 °FPassing clouds.7 mph57%30.66 "HgN/A
2:20 PM46 °FPassing clouds.7 mph62%30.66 "HgN/A
1:50 PM46 °FPassing clouds.6 mph62%30.66 "HgN/A
1:20 PM45 °FPassing clouds.6 mph66%30.66 "HgN/A
12:50 PM45 °FPassing clouds.6 mph71%30.69 "HgN/A
12:20 PM45 °FPassing clouds.5 mph71%30.69 "HgN/A
11:50 AM43 °FPassing clouds.5 mph81%30.69 "HgN/A
11:20 AM43 °FPassing clouds.6 mph76%30.69 "HgN/A
9:50 AM39 °FPassing clouds.5 mph81%30.69 "HgN/A
9:20 AM36 °FPassing clouds.5 mph93%30.69 "HgN/A
8:50 AM36 °FPassing clouds.6 mph87%30.69 "HgN/A
8:20 AM34 °FPassing clouds.6 mph93%30.66 "HgN/A
7:50 AM34 °FPassing clouds.5 mph93%30.66 "HgN/A
7:20 AM34 °FPassing clouds.3 mph93%30.66 "Hg6 mi
6:50 AM32 °FPassing clouds.3 mph93%30.66 "Hg6 mi
6:20 AM34 °FPassing clouds.1 mph93%30.63 "Hg6 mi
5:50 AM34 °FPassing clouds.2 mph93%30.63 "HgN/A
5:20 AM34 °FPassing clouds.5 mph93%30.63 "HgN/A
4:50 AM34 °FClear.5 mph93%30.63 "Hg10 mi
4:20 AM34 °FPassing clouds.6 mph93%30.63 "HgN/A
Weather by CustomWeather, © 2015

See weather overviewHow to use our weather pages